Total_Precipitation_Accumulation
0.00 0.00 0.03 0.04 0.02 0.02 0.01 0.00 0.00 0.01 0.02 0.01 0.00 0.00 0.00 0.00 0.01 0.02 0.03 0.11 0.16 0.16 0.12 0.18 0.23 0.14 0.11 0.07 0.04 0.03 0.04 0.03 0.03 0.03 0.05 0.07 0.08 0.08 0.09 0.03 0.02 0.02 0.03
0.00 0.00 0.02 0.03 0.06 0.04 0.03 0.02 0.01 0.01 0.01 0.02 0.01 0.01 0.01 0.02 0.03 0.05 0.16 0.18 0.21 0.20 0.23 0.15 0.10 0.05 0.08 0.04 0.01 0.00 0.00 0.00 0.01 0.01 0.00 0.01 0.08 0.08 0.03 0.03 0.01 0.03 0.02
0.00 0.00 0.01 0.03 0.04 0.05 0.03 0.01 0.01 0.01 0.01 0.02 0.05 0.07 0.03 0.03 0.05 0.13 0.30 0.15 0.18 0.24 0.31 0.16 0.07 0.02 0.02 0.02 0.03 0.03 0.01 0.00 0.00 0.00 0.00 0.00 0.02 0.07 0.01 0.04 0.01 0.02 0.01
0.00 0.00 0.01 0.03 0.02 0.03 0.02 0.00 0.01 0.01 0.01 0.02 0.05 0.07 0.10 0.07 0.13 0.40 0.34 0.17 0.17 0.10 0.12 0.11 0.07 0.01 0.01 0.02 0.02 0.03 0.01 0.00 0.00 0.00 0.00 0.00 0.03 0.06 0.03 0.03 0.02 0.01 0.01
0.00 0.00 0.01 0.03 0.01 0.01 0.01 0.01 0.01 0.02 0.03 0.05 0.07 0.10 0.15 0.22 0.45 0.48 0.34 0.16 0.16 0.04 0.02 0.08 0.16 0.10 0.05 0.11 0.14 0.10 0.00 0.00 0.00 0.00 0.00 0.00 0.01 0.03 0.03 0.01 0.00 0.00 0.00
0.00 0.00 0.03 0.02 0.01 0.00 0.01 0.01 0.02 0.03 0.04 0.04 0.09 0.18 0.22 0.31 0.20 0.08 0.05 0.04 0.02 0.04 0.06 0.15 0.22 0.28 0.23 0.11 0.11 0.04 0.01 0.00 0.01 0.01 0.00 0.06 0.02 0.07 0.03 0.02 0.01 0.01 0.01
0.00 0.01 0.05 0.02 0.01 0.01 0.01 0.01 0.01 0.02 0.02 0.01 0.06 0.16 0.19 0.13 0.08 0.01 0.02 0.08 0.07 0.07 0.09 0.37 0.34 0.30 0.28 0.08 0.04 0.06 0.02 0.00 0.01 0.00 0.00 0.01 0.14 0.12 0.12 0.11 0.06 0.04 0.05
0.01 0.04 0.05 0.03 0.01 0.01 0.01 0.01 0.00 0.01 0.01 0.05 0.08 0.12 0.06 0.03 0.02 0.05 0.10 0.25 0.46 0.51 0.21 0.12 0.23 0.58 0.44 0.16 0.04 0.16 0.09 0.03 0.00 0.00 0.00 0.03 0.29 0.18 0.15 0.12 0.14 0.09 0.05
0.02 0.06 0.06 0.04 0.02 0.01 0.02 0.01 0.00 0.00 0.02 0.06 0.06 0.07 0.01 0.00 0.01 0.05 0.17 0.29 0.23 0.10 0.03 0.08 0.19 0.21 0.14 0.14 0.06 0.07 0.11 0.07 0.00 0.00 0.01 0.05 0.25 0.11 0.09 0.07 0.04 0.02 0.01
0.06 0.08 0.05 0.03 0.02 0.02 0.02 0.03 0.02 0.00 0.01 0.01 0.06 0.02 0.00 0.01 0.02 0.08 0.14 0.12 0.03 0.03 0.04 0.05 0.08 0.08 0.09 0.06 0.16 0.11 0.03 0.00 0.00 0.00 0.02 0.14 0.28 0.11 0.10 0.06 0.01 0.01 0.02
0.12 0.11 0.04 0.03 0.02 0.02 0.02 0.04 0.02 0.00 0.00 0.04 0.13 0.04 0.06 0.06 0.01 0.01 0.02 0.00 0.02 0.05 0.05 0.03 0.04 0.05 0.07 0.03 0.03 0.11 0.04 0.02 0.00 0.00 0.02 0.27 0.21 0.11 0.05 0.02 0.03 0.01 0.00
0.11 0.10 0.05 0.04 0.03 0.02 0.02 0.01 0.00 0.00 0.00 0.00 0.02 0.06 0.01 0.00 0.01 0.05 0.05 0.02 0.02 0.02 0.02 0.00 0.00 0.00 0.01 0.00 0.00 0.01 0.05 0.04 0.03 0.02 0.02 0.25 0.22 0.07 0.10 0.03 0.01 0.00 0.02
0.09 0.10 0.04 0.03 0.04 0.02 0.03 0.01 0.01 0.00 0.00 0.00 0.00 0.00 0.00 0.00 0.00 0.01 0.00 0.00 0.00 0.00 0.00 0.00 0.00 0.00 0.01 0.00 0.00 0.01 0.01 0.01 0.00 0.00 0.02 0.07 0.23 0.12 0.05 0.03 0.04 0.02 0.03
0.13 0.11 0.04 0.03 0.04 0.03 0.02 0.01 0.01 0.00 0.00 0.00 0.00 0.00 0.00 0.00 0.00 0.00 0.00 0.00 0.00 0.00 0.00 0.00 0.00 0.00 0.00 0.00 0.00 0.00 0.00 0.00 0.00 0.00 0.01 0.01 0.08 0.21 0.18 0.15 0.09 0.08 0.06
0.14 0.15 0.06 0.03 0.08 0.02 0.01 0.01 0.01 0.01 0.03 0.01 0.00 0.01 0.00 0.00 0.00 0.00 0.00 0.00 0.00 0.00 0.00 0.00 0.00 0.00 0.00 0.00 0.00 0.00 0.00 0.01 0.02 0.01 0.00 0.02 0.03 0.08 0.24 0.39 0.42 0.39 0.21
0.16 0.19 0.07 0.06 0.07 0.02 0.04 0.01 0.01 0.02 0.02 0.00 0.00 0.03 0.00 0.00 0.00 0.00 0.00 0.00 0.00 0.00 0.00 0.00 0.00 0.00 0.00 0.00 0.00 0.00 0.00 0.01 0.01 0.01 0.00 0.00 0.00 0.02 0.09 0.21 0.30 0.45 0.40
0.10 0.18 0.11 0.09 0.07 0.04 0.06 0.03 0.02 0.02 0.01 0.00 0.00 0.01 0.01 0.00 0.00 0.00 0.00 0.00 0.00 0.00 0.00 0.00 0.00 0.00 0.00 0.00 0.00 0.00 0.00 0.00 0.00 0.00 0.00 0.00 0.00 0.00 0.01 0.05 0.38 1.23 1.49
0.08 0.16 0.20 0.16 0.07 0.05 0.07 0.09 0.11 0.07 0.05 0.02 0.00 0.00 0.00 0.00 0.00 0.00 0.00 0.00 0.00 0.00 0.00 0.00 0.00 0.00 0.00 0.00 0.00 0.00 0.00 0.00 0.00 0.00 0.00 0.00 0.01 0.02 0.00 0.00 0.37 1.49 1.63
0.06 0.13 0.24 0.27 0.13 0.11 0.08 0.07 0.11 0.09 0.06 0.03 0.03 0.00 0.00 0.00 0.00 0.00 0.00 0.00 0.00 0.00 0.00 0.00 0.00 0.00 0.00 0.00 0.00 0.00 0.00 0.00 0.00 0.00 0.00 0.00 0.01 0.02 0.00 0.00 0.02 0.20 0.82
0.09 0.10 0.18 0.31 0.28 0.18 0.20 0.17 0.13 0.09 0.05 0.04 0.02 0.01 0.00 0.00 0.00 0.00 0.00 0.00 0.00 0.00 0.00 0.00 0.00 0.00 0.00 0.00 0.00 0.00 0.00 0.00 0.00 0.00 0.00 0.00 0.00 0.00 0.00 0.00 0.00 0.00 0.05
0.15 0.15 0.18 0.25 0.33 0.29 0.21 0.15 0.14 0.08 0.04 0.03 0.02 0.02 0.01 0.00 0.00 0.00 0.00 0.00 0.00 0.00 0.00 0.00 0.00 0.00 0.00 0.00 0.00 0.00 0.00 0.00 0.00 0.00 0.00 0.00 0.00 0.00 0.00 0.00 0.00 0.00 0.00
0.10 0.15 0.20 0.24 0.40 0.50 0.44 0.26 0.15 0.07 0.08 0.06 0.04 0.03 0.02 0.00 0.00 0.00 0.00 0.00 0.00 0.00 0.00 0.00 0.00 0.00 0.00 0.00 0.00 0.00 0.00 0.00 0.00 0.00 0.00 0.00 0.00 0.00 0.00 0.00 0.00 0.00 0.00
0.09 0.09 0.15 0.27 0.30 0.47 0.52 0.35 0.20 0.15 0.16 0.11 0.05 0.02 0.00 0.00 0.00 0.00 0.00 0.00 0.00 0.00 0.00 0.00 0.00 0.00 0.00 0.00 0.00 0.00 0.00 0.00 0.00 0.00 0.00 0.00 0.00 0.00 0.00 0.00 0.00 0.00 0.00
0.05 0.04 0.08 0.17 0.36 0.30 0.57 0.68 0.48 0.27 0.21 0.11 0.07 0.03 0.00 0.00 0.00 0.00 0.00 0.00 0.00 0.00 0.00 0.00 0.00 0.00 0.00 0.00 0.00 0.00 0.00 0.00 0.00 0.00 0.00 0.00 0.00 0.00 0.00 0.00 0.00 0.00 0.00
0.04 0.04 0.06 0.08 0.20 0.45 0.38 0.57 0.76 0.74 0.41 0.32 0.25 0.14 0.04 0.01 0.00 0.00 0.00 0.00 0.00 0.00 0.00 0.00 0.00 0.00 0.00 0.00 0.00 0.00 0.00 0.00 0.00 0.00 0.00 0.00 0.00 0.00 0.00 0.00 0.00 0.00 0.00
0.05 0.05 0.05 0.09 0.11 0.27 0.44 0.47 0.47 0.58 0.64 0.47 0.38 0.31 0.14 0.03 0.01 0.00 0.00 0.00 0.00 0.00 0.00 0.00 0.00 0.00 0.00 0.00 0.00 0.00 0.00 0.00 0.00 0.00 0.00 0.00 0.00 0.00 0.00 0.00 0.00 0.00 0.00